This is the latest recevied weather packets stored in our database for station/object SAVIL. If no packets are shown the sender has not sent any weather packets the latest 10 day(s).
| Time | Temp. | Humidity | Pressure | Rain* | Wind** | Luminosity | Snow |
|---|---|---|---|---|---|---|---|
| 1777292795 | 5.56° C | 47% | 1011 hPa | 0 mm | - | - | - |
| 1777291595 | 5.56° C | 44% | 1011 hPa | 0 mm | - | - | - |
| 1777290395 | 5° C | 49% | 1011.1 hPa | 0 mm | - | - | - |
| 1777287995 | 5.56° C | 44% | 1010.7 hPa | 0 mm | - | - | - |
| 1777286795 | 6.11° C | 42% | 1010.8 hPa | 0 mm | - | - | - |
| 1777285595 | 5.56° C | 44% | 1010.8 hPa | 0 mm | - | - | - |
| 1777284395 | 6.67° C | 42% | 1010.7 hPa | 0 mm | - | - | - |
| 1777283195 | 6.67° C | 46% | 1010.7 hPa | 0 mm | - | - | - |
| 1777281995 | 6.11° C | 43% | 1010.8 hPa | 0 mm | - | - | - |
| 1777280795 | 6.11° C | 45% | 1010.8 hPa | 0 mm | - | - | - |
| 1777279594 | 5.56° C | 48% | 1010.9 hPa | 0 mm | - | - | - |
| 1777278394 | 5° C | 46% | 1010.8 hPa | 0 mm | - | - | - |
| 1777277194 | 5° C | 48% | 1010.8 hPa | 0 mm | - | - | - |
| 1777275994 | 4.44° C | 50% | 1010.9 hPa | 0 mm | - | - | - |
| 1777273594 | 3.89° C | 48% | 1010.8 hPa | 0 mm | - | - | - |
| 1777272394 | 3.33° C | 50% | 1010.7 hPa | 0 mm | - | - | - |
| 1777271194 | 3.33° C | 53% | 1010.7 hPa | 0 mm | - | - | - |
| 1777269994 | 2.22° C | 57% | 1010.8 hPa | 0 mm | - | - | - |
| 1777268794 | 2.22° C | 60% | 1010.6 hPa | 0 mm | - | - | - |
| 1777267594 | 2.22° C | 60% | 1010.6 hPa | 0 mm | - | - | - |
| 1777266394 | 1.67° C | 61% | 1010.7 hPa | 0 mm | - | - | - |
| 1777265194 | 1.11° C | 61% | 1010.6 hPa | 0 mm | - | - | - |
| 1777263994 | 1.11° C | 62% | 1010.5 hPa | 0 mm | - | - | - |
* Rain latest hour (hover to see other rain measurements)
** Current wind speed in m/s (hover to see current wind gust speed)